Weather History for Billings, MT

Change the Weather History Date:

Tuesday, March 27, 2012

  Actual Average Record
Temperature  
Mean Temperature 53 °F 41 °F  
Max Temperature 62 °F 52 °F 74 °F (1946)
Min Temperature 44 °F 30 °F 8 °F (1954)
Degree Days  
Heating Degree Days 12 24  
Month to date heating degree days 511 750  
Since 1 July heating degree days 5019 5715  
Cooling Degree Days 0 0  
Month to date cooling degree days 0 0  
Year to date cooling degree days 0 0  
Growing Degree Days 3 (Base 50)    
Moisture  
Dew Point 24 °F    
Average Humidity 41    
Maximum Humidity 62    
Minimum Humidity 19    
Precipitation  
Precipitation 0.00 in 0.05 in 0.64 in (1981)
Month to date precipitation 0.70 0.88  
Year to date precipitation 1.55 1.84  
Snow  
Snow 0.00 in 0.40 in 5.00 in (1981)
Month to date snowfall 5.9 8.8  
Since 1 July snowfall 34.7 43.3  
Snow Depth 0.00 in    
Sea Level Pressure  
Sea Level Pressure 29.85 in    
Wind  
Wind Speed 15 mph (West)    
Max Wind Speed 33 mph    
Max Gust Speed 39 mph    
Visibility 10 miles    
Events      
T = Trace of Precipitation, MM = Missing Value Source: NWS Daily Summary

Daily Weather History Graph

Daily Weather History Graph

Search for Another Location

Airport:

Trip Planner

Search our weather history database for the weather conditions in past years. The results will help you decide how hot, cold, wet, or windy it might be!

Date:

Astronomy

Mar. 27, 2012 Rise Set
Actual Time 7:02 AM MDT 7:36 PM MDT
Civil Twilight 6:32 AM MDT 8:06 PM MDT
Nautical Twilight 5:57 AM MDT 8:42 PM MDT
Astronomical Twilight 5:20 AM MDT 9:19 PM MDT
Moon 9:20 AM MDT (3/27) 12:04 AM MDT (3/27)
Length of Visible Light 13h 33m
Length of Day
12h 34m
Waxing Crescent, 22% of the Moon is Illuminated
Mar 27
Waxing Crescent
Mar 30
First Quarter
Apr 6
Full
Apr 13
Last Quarter
Apr 21
New

Hourly Weather History & Observations

Time (MDT) Temp. Windchill Dew Point Humidity Pressure Visibility Wind Dir Wind Speed Gust Speed Precip Events Conditions
12:53 AM 48.0 °F - 35.1 °F 61% 29.69 in 10.0 mi West 23.0 mph 31.1 mph N/A   Mostly Cloudy
1:53 AM 46.0 °F 37.8 °F 33.1 °F 61% 29.72 in 10.0 mi WNW 23.0 mph 28.8 mph N/A   Mostly Cloudy
2:53 AM 46.0 °F 37.0 °F 33.1 °F 61% 29.74 in 10.0 mi West 27.6 mph 34.5 mph N/A   Mostly Cloudy
3:53 AM 45.0 °F 36.4 °F 32.0 °F 60% 29.75 in 10.0 mi WNW 23.0 mph - N/A   Mostly Cloudy
4:53 AM 45.0 °F 36.2 °F 30.0 °F 56% 29.78 in 10.0 mi West 24.2 mph 29.9 mph N/A   Mostly Cloudy
5:53 AM 45.0 °F 36.9 °F 28.0 °F 52% 29.83 in 10.0 mi West 20.7 mph 33.4 mph N/A   Scattered Clouds
6:53 AM 44.1 °F 36.5 °F 28.0 °F 53% 29.85 in 10.0 mi WNW 17.3 mph 23.0 mph N/A   Scattered Clouds
7:53 AM 44.1 °F 37.1 °F 27.0 °F 51% 29.88 in 10.0 mi WNW 15.0 mph - N/A   Scattered Clouds
8:53 AM 46.0 °F 39.9 °F 26.1 °F 46% 29.90 in 10.0 mi West 13.8 mph 19.6 mph N/A   Scattered Clouds
9:53 AM 51.1 °F - 21.0 °F 31% 29.89 in 10.0 mi West 27.6 mph 39.1 mph N/A   Partly Cloudy
10:53 AM 53.1 °F - 18.0 °F 25% 29.89 in 10.0 mi West 25.3 mph 35.7 mph N/A   Partly Cloudy
11:53 AM 55.0 °F - 19.0 °F 24% 29.89 in 10.0 mi West 17.3 mph 26.5 mph N/A   Partly Cloudy
12:53 PM 57.9 °F - 19.9 °F 23% 29.88 in 10.0 mi WNW 20.7 mph 25.3 mph N/A   Partly Cloudy
1:53 PM 57.9 °F - 19.0 °F 22% 29.87 in 10.0 mi West 10.4 mph 25.3 mph N/A   Partly Cloudy
2:41 PM 60.8 °F - 19.4 °F 20% 29.88 in 10.0 mi West 12.7 mph 23.0 mph N/A   Partly Cloudy
2:53 PM 59.0 °F - 18.0 °F 20% 29.86 in 10.0 mi WSW 10.4 mph 19.6 mph N/A   Scattered Clouds
3:53 PM 61.0 °F - 17.1 °F 18% 29.83 in 10.0 mi WSW 10.4 mph 19.6 mph N/A   Partly Cloudy
4:53 PM 62.1 °F - 19.0 °F 19% 29.83 in 10.0 mi West 13.8 mph - N/A   Scattered Clouds
5:53 PM 61.0 °F - 18.0 °F 19% 29.84 in 10.0 mi WNW 10.4 mph - N/A   Partly Cloudy
6:53 PM 59.0 °F - 18.0 °F 20% 29.85 in 10.0 mi WSW 5.8 mph - N/A   Scattered Clouds
7:53 PM 50.0 °F - 21.9 °F 33% 29.89 in 10.0 mi NW 5.8 mph - N/A   Clear
8:53 PM 48.9 °F - 24.1 °F 38% 29.91 in 10.0 mi WNW 10.4 mph - N/A   Clear
9:53 PM 50.0 °F - 24.1 °F 36% 29.91 in 10.0 mi SSW 9.2 mph - N/A   Clear
10:53 PM 50.0 °F - 23.0 °F 35% 29.91 in 10.0 mi Calm Calm - N/A   Clear
11:53 PM 46.9 °F - 24.1 °F 41% 29.90 in 10.0 mi South 4.6 mph - N/A   Clear